sat.trackr.live / text

‹ back to catalog

HAWK-6C

NORAD 55326 · 2023-011C

PAYLOAD ACTIVE UNKNOWN

§ Identity

Operator
Country
US
Launch date
2023-01-24
Launch site
WLPIS
Launch vehicle
Mass (kg)
RCS (m²)

Purposes: tech_demo

External: N2YO · Heavens-Above · Gunter

§ Orbital elements

Epoch: 2026-05-25T05:29:56.789664Z

Period
94.57 min
Inclination
40.4973°
Eccentricity
0.0004519
Mean motion
15.22687402 rev/d
Perigee alt
494.6 km
Apogee alt
500.8 km
Semi-major
6,875.9 km
B*
1.5791e-4
RAAN
122.7968°
Arg perigee
235.7924°
Mean anomaly
124.2457°
Rev number
18,435

§ Raw data

HAWK-6C1 55326U 23011C   26145.22912951  .00003563  00000+0  15791-3 0  99992 55326  40.4973 122.7968 0004519 235.7924 124.2457 15.22687402184359

JSON: /api/v1/satellites/55326 · /tle

For live sub-satellite position, see the globe view (requires WebGL).

§ Visibility from observer

Set your observer location to see the next 7 days of passes ≥ 10°. The values pass through the URL so the page stays shareable.

No JS? Fill the form by hand. The geolocation button needs JavaScript.